User: anonymous   Login
Location: Unspecified
(0.0000°N, 0.0000°E)
Time: 06:11:27
(UTC+00:00)
Language:

CHUBUSAT 1 - Orbit

View from above orbital plane
View from above orbital plane
View from above satellite
View from above satellite

Ground track
Ground track

The orbit data is extracted from the following two-line orbital elements,

1 40300U 14070C   18116.73344662  .00001042  00000-0  49081-4 0  9994
2 40300  97.3657 195.5240 0022131  83.3091  36.1179 15.21505790192458
Epoch (UTC): 26 April 2018 17:36:09
Eccentricity: 0.0022131
inclination: 97.3657°
perigee height: 486 km
apogee height: 516 km
right ascension of ascending node: 195.5240°
argument of perigee: 83.3091°
revolutions per day: 15.21505790
mean anomaly at epoch: 36.1179°
orbit number at epoch: 19245

The dashed part of the orbit path shows where the satellite is in the earth's shadow,  

DLR